This is the latest recevied weather packets stored in our database for station/object OK2ILA-10. If no packets are shown the sender has not sent any weather packets the latest 10 day(s).
| Time | Temp. | Humidity | Pressure | Rain* | Wind** | Luminosity | Snow |
|---|---|---|---|---|---|---|---|
| 1777277785 | 18.89° C | 34% | 1024.4 hPa | - | - | - | - |
| 1777277781 | 18.89° C | 34% | 1024.4 hPa | - | - | - | - |
| 1777277184 | 17.78° C | 36% | 1024.3 hPa | - | - | - | - |
| 1777277180 | 17.78° C | 36% | 1024.3 hPa | - | - | - | - |
| 1777276584 | 18.89° C | 35% | 1024.4 hPa | - | - | - | - |
| 1777276580 | 18.89° C | 35% | 1024.4 hPa | - | - | - | - |
| 1777275984 | 17.78° C | 36% | 1024.5 hPa | - | - | - | - |
| 1777275980 | 17.78° C | 36% | 1024.5 hPa | - | - | - | - |
| 1777275384 | 16.67° C | 37% | 1024.4 hPa | - | - | - | - |
| 1777275380 | 16.67° C | 37% | 1024.4 hPa | - | - | - | - |
| 1777274784 | 16.67° C | 37% | 1024.6 hPa | - | - | - | - |
| 1777274779 | 16.67° C | 37% | 1024.6 hPa | - | - | - | - |
| 1777274183 | 16.67° C | 37% | 1024.5 hPa | - | - | - | - |
| 1777274179 | 16.67° C | 37% | 1024.5 hPa | - | - | - | - |
| 1777273583 | 17.22° C | 38% | 1024.6 hPa | - | - | - | - |
| 1777273579 | 17.22° C | 38% | 1024.6 hPa | - | - | - | - |
| 1777272983 | 15.56° C | 39% | 1024.6 hPa | - | - | - | - |
| 1777272979 | 15.56° C | 39% | 1024.6 hPa | - | - | - | - |
| 1777272383 | 13.33° C | 41% | 1024.5 hPa | - | - | - | - |
| 1777272379 | 13.33° C | 41% | 1024.5 hPa | - | - | - | - |
| 1777271783 | 12.22° C | 43% | 1024.7 hPa | - | - | - | - |
| 1777271778 | 12.22° C | 43% | 1024.7 hPa | - | - | - | - |
| 1777271178 | 10.56° C | 45% | 1024.7 hPa | - | - | - | - |
| 1777270582 | 9.44° C | 46% | 1024.6 hPa | - | - | - | - |
| 1777270578 | 9.44° C | 46% | 1024.6 hPa | - | - | - | - |
* Rain since midnight (hover to see other rain measurements)
** Current wind speed in m/s (hover to see current wind gust speed)